Location: Cahas Mountain Overlook
(37.0833°N, 80.1000°W)
Time: 14:15:57
(UTC-05:00)

ARIANE 6 FM1 Upper Stage - Visible Passes

Search period start: 18 January 2026 00:00
Search period end: 28 January 2026 00:00
Orbit: 522 x 610 km, 62.0° (Epoch: 17 January)

Date Brightness Start Highest point End Pass type
(mag) Time Alt. Az. Time Alt. Az. Time Alt. Az.
18 Jan 4.8 05:05:14 20° SSE 05:05:14 20° SSE 05:06:35 10° SSE visible
18 Jan 4.4 18:56:59 10° SSE 18:58:54 18° SE 18:58:54 18° SE visible
19 Jan 5.3 05:06:20 12° SSE 05:06:20 12° SSE 05:06:39 10° SSE visible
19 Jan 3.5 18:56:26 10° S 19:00:00 30° ESE 19:00:00 30° ESE visible
19 Jan 5.8 20:35:43 10° WSW 20:36:04 12° W 20:36:04 12° W visible
20 Jan 2.9 18:56:12 10° SSW 19:00:09 47° ESE 19:01:03 39° E visible
20 Jan 5.8 20:36:40 10° W 20:37:07 12° W 20:37:07 12° W visible
21 Jan 2.5 18:56:11 10° SSW 19:00:17 76° ESE 19:02:01 33° NE visible
22 Jan 2.8 18:56:22 10° SW 19:00:27 68° NW 19:02:52 23° NNE visible
23 Jan 3.6 18:56:44 10° SW 19:00:39 43° NW 19:03:39 16° NNE visible
24 Jan 4.3 18:57:19 10° WSW 19:00:54 29° NW 19:04:20 11° NNE visible
25 Jan 4.8 18:58:06 10° W 19:01:11 20° NW 19:04:15 10° N visible
26 Jan 5.2 18:59:11 10° WNW 19:01:31 15° NW 19:03:49 10° N visible
27 Jan 5.4 19:01:04 10° NW 19:01:53 10° NW 19:02:42 10° NNW visible
